Tracking 27420 objects as of 11-Jun-2023
HD Live streaming from Space Station
objects crossing your sky now

STARLINK-5534

Track STARLINK-5534 now!
10-day predictions
STARLINK-5534 is classified as:


NORAD ID: 56477
Int'l Code: 2023-064AF
Perigee: 364.0 km
Apogee: 368.5 km
Inclination: 70.0 °
Period: 91.7 minutes
Semi major axis: 6737 km
RCS: Unknown
Launch date: May 10, 2023
Source: United States (US)
Launch site: AIR FORCE WESTERN TEST RANGE (AFWTR)
Your satellite tracking list
Your tracking list is empty




NASA's NSSDC Master Catalog

Two Line Element Set (TLE):
1 56477U 23064AF  23161.48954577  .00001175  00000-0  11534-4 0  9998
2 56477  69.9969 158.7983 0003360 261.1647  98.9168 15.69929501  4854
Source of the keplerian elements: AFSPC